Time,TemperatureF,DewpointF,PressureIn,WindDirection,WindDirectionDegrees,WindSpeedMPH,WindSpeedGustMPH,Humidity,HourlyPrecipIn,Conditions,Clouds,dailyrainin,SolarRadiationWatts/m^2,SoftwareType,DateUTC
2013-06-24 00:03:00,53.0,53.0,-100.00,NE,50,0.0,1.0,100,0.00,,,0.04,33.000000,,2013-06-24 07:03:00,
2013-06-24 00:13:00,53.0,53.0,-100.00,NE,50,0.0,1.0,100,0.00,,,0.04,33.000000,,2013-06-24 07:13:00,
2013-06-24 00:26:00,53.0,53.0,-100.00,NE,50,0.0,1.0,100,0.00,,,0.04,33.000000,,2013-06-24 07:26:00,
2013-06-24 00:34:00,53.0,53.0,-100.00,NE,50,0.0,1.0,100,0.00,,,0.04,33.000000,,2013-06-24 07:34:00,
2013-06-24 01:03:00,53.0,53.0,-100.00,North,356,0.0,2.0,100,0.00,,,0.04,35.000000,,2013-06-24 08:03:00,
2013-06-24 01:13:00,53.0,53.0,-100.00,North,356,0.0,2.0,100,0.00,,,0.04,35.000000,,2013-06-24 08:13:00,
2013-06-24 01:24:00,53.0,53.0,-100.00,North,356,0.0,2.0,100,0.00,,,0.04,35.000000,,2013-06-24 08:24:00,
2013-06-24 01:33:00,53.0,53.0,-100.00,North,356,0.0,2.0,100,0.00,,,0.04,35.000000,,2013-06-24 08:33:00,
2013-06-24 02:05:00,53.0,53.0,-100.00,NNW,328,0.0,2.0,100,0.00,,,0.04,37.000000,,2013-06-24 09:05:00,
2013-06-24 02:14:00,53.0,53.0,-100.00,NNW,328,0.0,2.0,100,0.00,,,0.04,37.000000,,2013-06-24 09:14:00,
2013-06-24 02:24:00,53.0,53.0,-100.00,NNW,328,0.0,2.0,100,0.00,,,0.04,37.000000,,2013-06-24 09:24:00,
2013-06-24 02:34:00,53.0,53.0,-100.00,NNW,328,0.0,2.0,100,0.00,,,0.04,37.000000,,2013-06-24 09:34:00,
2013-06-24 06:13:00,51.0,51.0,-100.00,SW,228,0.0,1.0,100,0.00,,,0.04,38.000000,,2013-06-24 13:13:00,
2013-06-24 06:22:00,51.0,51.0,-100.00,SW,228,0.0,1.0,100,0.00,,,0.04,38.000000,,2013-06-24 13:22:00,
2013-06-24 07:14:00,52.0,52.0,-100.00,SSW,205,1.0,3.0,100,-99.99,,,0.06,38.000000,,2013-06-24 14:14:00,
2013-06-24 07:22:00,52.0,52.0,-100.00,SSW,205,1.0,3.0,100,-99.99,,,0.06,38.000000,,2013-06-24 14:22:00,
2013-06-24 07:35:00,52.0,52.0,-100.00,SSW,205,1.0,3.0,100,-99.99,,,0.06,38.000000,,2013-06-24 14:35:00,
2013-06-24 09:03:00,52.0,52.0,-100.00,SSW,205,1.0,6.0,100,-99.99,,,0.06,41.000000,,2013-06-24 16:03:00,
2013-06-24 09:12:00,52.0,52.0,-100.00,SSW,205,1.0,6.0,100,-99.99,,,0.06,41.000000,,2013-06-24 16:12:00,
2013-06-24 09:23:00,52.0,52.0,-100.00,SSW,205,1.0,6.0,100,-99.99,,,0.06,41.000000,,2013-06-24 16:23:00,
2013-06-24 09:34:00,52.0,52.0,-100.00,SSW,205,1.0,6.0,100,-99.99,,,0.06,41.000000,,2013-06-24 16:34:00,
2013-06-24 10:04:00,52.0,52.0,-100.00,SE,125,0.0,2.0,99,0.00,,,0.06,39.000000,,2013-06-24 17:04:00,
2013-06-24 10:13:00,52.0,52.0,-100.00,SE,125,0.0,2.0,99,0.00,,,0.06,39.000000,,2013-06-24 17:13:00,
2013-06-24 10:24:00,52.0,52.0,-100.00,SE,125,0.0,2.0,99,0.00,,,0.06,39.000000,,2013-06-24 17:24:00,
2013-06-24 10:34:00,52.0,52.0,-100.00,SE,125,0.0,2.0,99,0.00,,,0.06,39.000000,,2013-06-24 17:34:00,
2013-06-24 12:05:00,50.0,50.0,-100.00,SW,228,1.0,5.0,99,-99.99,,,0.18,46.000000,,2013-06-24 19:05:00,
2013-06-24 15:04:00,55.0,52.0,-100.00,WSW,238,2.0,6.0,91,-99.99,,,0.18,40.000000,,2013-06-24 22:04:00,
2013-06-24 15:13:00,55.0,52.0,-100.00,WSW,238,2.0,6.0,91,-99.99,,,0.18,40.000000,,2013-06-24 22:13:00,
2013-06-24 16:04:00,61.0,54.0,-100.00,WNW,300,1.0,6.0,78,-99.99,,,0.20,36.000000,,2013-06-24 23:04:00,
2013-06-24 16:11:00,61.0,54.0,-100.00,WNW,300,1.0,6.0,78,-99.99,,,0.20,36.000000,,2013-06-24 23:11:00,
2013-06-24 16:23:00,61.0,54.0,-100.00,WNW,300,1.0,6.0,78,-99.99,,,0.20,36.000000,,2013-06-24 23:23:00,
2013-06-24 16:33:00,61.0,54.0,-100.00,WNW,300,1.0,6.0,78,-99.99,,,0.20,36.000000,,2013-06-24 23:33:00,
2013-06-24 18:03:00,56.0,52.0,-100.00,SSE,161,0.0,3.0,87,-99.99,,,0.20,33.000000,,2013-06-25 01:03:00,
2013-06-24 18:13:00,56.0,52.0,-100.00,SSE,161,0.0,3.0,87,-99.99,,,0.20,33.000000,,2013-06-25 01:13:00,
2013-06-24 18:23:00,56.0,52.0,-100.00,SSE,161,0.0,3.0,87,-99.99,,,0.20,33.000000,,2013-06-25 01:23:00,
2013-06-24 18:33:00,56.0,52.0,-100.00,SSE,161,0.0,3.0,87,-99.99,,,0.20,33.000000,,2013-06-25 01:33:00,
2013-06-24 19:03:00,55.0,52.0,-100.00,North,0,0.0,2.0,89,0.00,,,0.20,32.000000,,2013-06-25 02:03:00,
2013-06-24 19:13:00,55.0,52.0,-100.00,North,0,0.0,2.0,89,0.00,,,0.20,32.000000,,2013-06-25 02:13:00,
2013-06-24 19:24:00,55.0,52.0,-100.00,North,0,0.0,2.0,89,0.00,,,0.20,32.000000,,2013-06-25 02:24:00,
2013-06-24 20:04:00,55.0,53.0,-100.00,North,0,0.0,0.0,92,0.00,,,0.20,31.000000,,2013-06-25 03:04:00,
2013-06-24 20:12:00,55.0,53.0,-100.00,North,0,0.0,0.0,92,0.00,,,0.20,31.000000,,2013-06-25 03:12:00,
2013-06-24 20:25:00,55.0,53.0,-100.00,North,0,0.0,0.0,92,0.00,,,0.20,31.000000,,2013-06-25 03:25:00,
2013-06-24 20:35:00,55.0,53.0,-100.00,North,0,0.0,0.0,92,0.00,,,0.20,31.000000,,2013-06-25 03:35:00,
2013-06-24 21:01:00,53.0,52.0,-100.00,NE,39,0.0,1.0,96,0.00,,,0.20,31.000000,,2013-06-25 04:01:00,
2013-06-24 21:11:00,53.0,52.0,-100.00,NE,39,0.0,1.0,96,0.00,,,0.20,31.000000,,2013-06-25 04:11:00,
2013-06-24 21:22:00,53.0,52.0,-100.00,NE,39,0.0,1.0,96,0.00,,,0.20,31.000000,,2013-06-25 04:22:00,
2013-06-24 21:33:00,53.0,52.0,-100.00,NE,39,0.0,1.0,96,0.00,,,0.20,31.000000,,2013-06-25 04:33:00,
2013-06-24 22:22:00,51.0,50.0,-100.00,North,0,0.0,0.0,97,0.00,,,0.17,31.000000,,2013-06-25 05:22:00,
2013-06-24 22:32:00,51.0,50.0,-100.00,North,0,0.0,0.0,97,0.00,,,0.17,31.000000,,2013-06-25 05:32:00,
2013-06-24 23:01:00,50.0,50.0,-100.00,North,0,0.0,0.0,99,0.00,,,0.16,31.000000,,2013-06-25 06:01:00,
2013-06-24 23:21:00,50.0,50.0,-100.00,North,0,0.0,0.0,99,0.00,,,0.16,31.000000,,2013-06-25 06:21:00,
2013-06-24 23:33:00,50.0,50.0,-100.00,North,0,0.0,0.0,99,0.00,,,0.16,31.000000,,2013-06-25 06:33:00,